Time,TemperatureF,DewpointF,PressureIn,WindDirection,WindDirectionDegrees,WindSpeedMPH,WindSpeedGustMPH,Humidity,HourlyPrecipIn,Conditions,Clouds,dailyrainin,SoftwareType,DateUTC
2013-05-06 00:00:00,58.0,50.0,29.93,NE,41,4.0,-999.0,76,-99.99,,,0.02,weatherlink.com 1.10,2013-05-06 04:00:00,
2013-05-06 00:15:00,58.0,50.0,29.93,NNE,30,3.0,-999.0,76,-99.99,,,0.02,weatherlink.com 1.10,2013-05-06 04:15:00,
2013-05-06 00:30:00,57.9,51.0,29.92,NNE,17,3.0,-999.0,77,-99.99,,,0.02,weatherlink.com 1.10,2013-05-06 04:30:00,
2013-05-06 00:45:00,57.7,51.0,29.92,North,360,3.0,-999.0,79,-99.99,,,0.00,weatherlink.com 1.10,2013-05-06 04:45:00,
2013-05-06 01:00:00,57.6,52.0,29.91,North,360,5.0,-999.0,80,-99.99,,,0.00,weatherlink.com 1.10,2013-05-06 05:00:00,
2013-05-06 01:15:00,57.5,52.0,29.91,NNE,14,4.0,-999.0,81,-99.99,,,0.00,weatherlink.com 1.10,2013-05-06 05:15:00,
2013-05-06 01:30:00,57.4,52.0,29.91,North,355,6.0,-999.0,81,-99.99,,,0.00,weatherlink.com 1.10,2013-05-06 05:30:00,
2013-05-06 01:45:00,57.3,52.0,29.90,North,360,4.0,-999.0,81,-99.99,,,0.00,weatherlink.com 1.10,2013-05-06 05:45:00,
2013-05-06 02:00:00,57.5,52.0,29.90,North,355,6.0,-999.0,81,-99.99,,,0.00,weatherlink.com 1.10,2013-05-06 06:00:00,
2013-05-06 02:15:00,58.1,52.0,29.89,NNE,28,3.0,-999.0,79,-99.99,,,0.00,weatherlink.com 1.10,2013-05-06 06:15:00,
2013-05-06 02:30:00,58.4,52.0,29.89,NNE,12,4.0,-999.0,78,-99.99,,,0.00,weatherlink.com 1.10,2013-05-06 06:30:00,
2013-05-06 02:45:00,58.9,51.0,29.87,NE,53,10.0,-999.0,76,-99.99,,,0.00,weatherlink.com 1.10,2013-05-06 06:45:00,
2013-05-06 03:00:00,59.1,51.0,29.87,NNE,29,5.0,-999.0,75,-99.99,,,0.00,weatherlink.com 1.10,2013-05-06 07:00:00,
2013-05-06 03:15:00,58.6,51.0,29.87,NNE,30,4.0,-999.0,76,-99.99,,,0.00,weatherlink.com 1.10,2013-05-06 07:15:00,
2013-05-06 03:30:00,58.0,51.0,29.87,NNE,17,6.0,-999.0,77,-99.99,,,0.00,weatherlink.com 1.10,2013-05-06 07:30:00,
2013-05-06 03:45:00,57.5,51.0,29.87,North,10,3.0,-999.0,78,-99.99,,,0.00,weatherlink.com 1.10,2013-05-06 07:45:00,
2013-05-06 04:00:00,57.4,51.0,29.86,NNE,13,7.0,-999.0,80,-99.99,,,0.00,weatherlink.com 1.10,2013-05-06 08:00:00,
2013-05-06 04:15:00,57.1,51.0,29.87,NE,40,4.0,-999.0,80,-99.99,,,0.00,weatherlink.com 1.10,2013-05-06 08:15:00,
2013-05-06 04:30:00,56.8,51.0,29.87,NNE,17,6.0,-999.0,80,-99.99,,,0.00,weatherlink.com 1.10,2013-05-06 08:30:00,
2013-05-06 04:45:00,56.3,50.0,29.88,NE,47,2.0,-999.0,80,-99.99,,,0.00,weatherlink.com 1.10,2013-05-06 08:45:00,
2013-05-06 05:00:00,56.1,50.0,29.88,NE,45,4.0,-999.0,79,-99.99,,,0.00,weatherlink.com 1.10,2013-05-06 09:00:00,
2013-05-06 05:15:00,56.2,49.0,29.88,NE,51,3.0,-999.0,77,-99.99,,,0.00,weatherlink.com 1.10,2013-05-06 09:15:00,
2013-05-06 05:30:00,56.0,49.0,29.88,NE,42,3.0,-999.0,76,-99.99,,,0.00,weatherlink.com 1.10,2013-05-06 09:30:00,
2013-05-06 05:45:00,55.4,48.0,29.88,NE,44,2.0,-999.0,76,-99.99,,,0.00,weatherlink.com 1.10,2013-05-06 09:45:00,
2013-05-06 06:00:00,55.0,48.0,29.89,NE,51,4.0,-999.0,76,-99.99,,,0.00,weatherlink.com 1.10,2013-05-06 10:00:00,
2013-05-06 06:15:00,55.0,48.0,29.89,NE,38,2.0,-999.0,76,-99.99,,,0.00,weatherlink.com 1.10,2013-05-06 10:15:00,
2013-05-06 06:30:00,54.6,47.0,29.90,NE,38,2.0,-999.0,76,-99.99,,,0.00,weatherlink.com 1.10,2013-05-06 10:30:00,
2013-05-06 06:45:00,54.3,47.0,29.90,NE,42,3.0,-999.0,77,-99.99,,,0.00,weatherlink.com 1.10,2013-05-06 10:45:00,
2013-05-06 07:00:00,54.5,47.0,29.90,NE,42,1.0,-999.0,77,-99.99,,,0.00,weatherlink.com 1.10,2013-05-06 11:00:00,
2013-05-06 07:15:00,54.9,48.0,29.91,NE,42,3.0,-999.0,77,-99.99,,,0.00,weatherlink.com 1.10,2013-05-06 11:15:00,
2013-05-06 07:30:00,55.5,48.0,29.92,NE,36,5.0,-999.0,76,-99.99,,,0.00,weatherlink.com 1.10,2013-05-06 11:30:00,
2013-05-06 07:45:00,55.9,48.0,29.92,NE,46,2.0,-999.0,76,-99.99,,,0.00,weatherlink.com 1.10,2013-05-06 11:45:00,
2013-05-06 08:00:00,56.7,49.0,29.92,NNE,28,3.0,-999.0,75,-99.99,,,0.00,weatherlink.com 1.10,2013-05-06 12:00:00,
2013-05-06 08:15:00,57.9,50.0,29.93,NE,55,5.0,-999.0,75,-99.99,,,0.00,weatherlink.com 1.10,2013-05-06 12:15:00,
2013-05-06 08:30:00,59.0,51.0,29.93,NE,39,4.0,-999.0,74,-99.99,,,0.00,weatherlink.com 1.10,2013-05-06 12:30:00,
2013-05-06 08:45:00,59.2,50.0,29.93,NE,34,2.0,-999.0,72,-99.99,,,0.00,weatherlink.com 1.10,2013-05-06 12:45:00,
2013-05-06 09:00:00,58.7,50.0,29.93,NE,34,4.0,-999.0,73,-99.99,,,0.00,weatherlink.com 1.10,2013-05-06 13:00:00,
2013-05-06 09:15:00,59.8,51.0,29.93,NE,42,3.0,-999.0,72,-99.99,,,0.00,weatherlink.com 1.10,2013-05-06 13:15:00,
2013-05-06 09:30:00,59.9,50.0,29.93,North,10,4.0,-999.0,71,-99.99,,,0.00,weatherlink.com 1.10,2013-05-06 13:30:00,
2013-05-06 09:45:00,60.5,51.0,29.93,NNE,28,5.0,-999.0,71,-99.99,,,0.00,weatherlink.com 1.10,2013-05-06 13:45:00,
2013-05-06 10:01:00,61.5,52.0,29.94,NNE,22,4.0,-999.0,71,-99.99,,,0.00,weatherlink.com 1.10,2013-05-06 14:01:00,
2013-05-06 10:16:00,62.1,52.0,29.94,NNE,32,4.0,-999.0,70,-99.99,,,0.00,weatherlink.com 1.10,2013-05-06 14:16:00,
2013-05-06 10:31:00,63.2,53.0,29.94,East,84,7.0,-999.0,70,-99.99,,,0.00,weatherlink.com 1.10,2013-05-06 14:31:00,
2013-05-06 10:46:00,64.5,55.0,29.94,ENE,76,5.0,-999.0,70,-99.99,,,0.00,weatherlink.com 1.10,2013-05-06 14:46:00,
2013-05-06 11:01:00,64.2,53.0,29.94,East,82,2.0,-999.0,68,-99.99,,,0.00,weatherlink.com 1.10,2013-05-06 15:01:00,
2013-05-06 11:16:00,64.5,54.0,29.94,ENE,67,3.0,-999.0,69,-99.99,,,0.00,weatherlink.com 1.10,2013-05-06 15:16:00,
2013-05-06 11:31:00,65.2,55.0,29.93,East,101,6.0,-999.0,70,-99.99,,,0.00,weatherlink.com 1.10,2013-05-06 15:31:00,
2013-05-06 11:46:00,65.8,56.0,29.93,East,79,6.0,-999.0,70,-99.99,,,0.00,weatherlink.com 1.10,2013-05-06 15:46:00,
2013-05-06 12:01:00,65.3,55.0,29.93,East,86,5.0,-999.0,70,-99.99,,,0.00,weatherlink.com 1.10,2013-05-06 16:01:00,
2013-05-06 12:16:00,65.0,55.0,29.93,East,93,6.0,-999.0,70,-99.99,,,0.00,weatherlink.com 1.10,2013-05-06 16:16:00,
2013-05-06 12:31:00,65.2,55.0,29.93,ENE,57,4.0,-999.0,69,-99.99,,,0.00,weatherlink.com 1.10,2013-05-06 16:31:00,
2013-05-06 12:46:00,66.5,56.0,29.92,ENE,65,4.0,-999.0,70,-99.99,,,0.00,weatherlink.com 1.10,2013-05-06 16:46:00,
2013-05-06 13:01:00,66.1,55.0,29.92,East,90,5.0,-999.0,67,-99.99,,,0.00,weatherlink.com 1.10,2013-05-06 17:01:00,
2013-05-06 13:16:00,67.3,55.0,29.92,NNE,33,8.0,-999.0,66,-99.99,,,0.00,weatherlink.com 1.10,2013-05-06 17:16:00,
2013-05-06 13:31:00,68.0,56.0,29.91,ENE,66,2.0,-999.0,66,-99.99,,,0.00,weatherlink.com 1.10,2013-05-06 17:31:00,
2013-05-06 13:46:00,67.4,55.0,29.91,ENE,59,2.0,-999.0,65,-99.99,,,0.00,weatherlink.com 1.10,2013-05-06 17:46:00,
2013-05-06 14:01:00,66.7,56.0,29.91,ENE,63,3.0,-999.0,69,-99.99,,,0.00,weatherlink.com 1.10,2013-05-06 18:01:00,
2013-05-06 14:16:00,67.4,57.0,29.91,ENE,76,2.0,-999.0,69,-99.99,,,0.00,weatherlink.com 1.10,2013-05-06 18:16:00,
2013-05-06 14:31:00,67.7,56.0,29.90,ENE,78,5.0,-999.0,67,-99.99,,,0.00,weatherlink.com 1.10,2013-05-06 18:31:00,
2013-05-06 14:46:00,68.6,58.0,29.90,East,83,4.0,-999.0,69,-99.99,,,0.00,weatherlink.com 1.10,2013-05-06 18:46:00,
2013-05-06 15:01:00,69.6,57.0,29.89,ENE,62,3.0,-999.0,64,-99.99,,,0.00,weatherlink.com 1.10,2013-05-06 19:01:00,
2013-05-06 15:16:00,69.1,57.0,29.89,ENE,66,4.0,-999.0,65,-99.99,,,0.00,weatherlink.com 1.10,2013-05-06 19:16:00,
2013-05-06 15:31:00,69.9,56.0,29.89,East,101,9.0,-999.0,62,-99.99,,,0.00,weatherlink.com 1.10,2013-05-06 19:31:00,
2013-05-06 15:46:00,69.8,57.0,29.89,ENE,65,4.0,-999.0,65,-99.99,,,0.00,weatherlink.com 1.10,2013-05-06 19:46:00,
2013-05-06 16:01:00,69.9,56.0,29.88,East,99,7.0,-999.0,62,-99.99,,,0.00,weatherlink.com 1.10,2013-05-06 20:01:00,
2013-05-06 16:16:00,69.1,56.0,29.88,East,79,4.0,-999.0,63,-99.99,,,0.00,weatherlink.com 1.10,2013-05-06 20:16:00,
2013-05-06 16:31:00,68.8,56.0,29.88,ENE,68,5.0,-999.0,63,-99.99,,,0.00,weatherlink.com 1.10,2013-05-06 20:31:00,
2013-05-06 16:46:00,68.4,56.0,29.88,East,88,4.0,-999.0,65,-99.99,,,0.00,weatherlink.com 1.10,2013-05-06 20:46:00,
2013-05-06 17:01:00,68.5,56.0,29.87,ENE,78,6.0,-999.0,65,-99.99,,,0.00,weatherlink.com 1.10,2013-05-06 21:01:00,
2013-05-06 17:16:00,68.3,56.0,29.87,NE,52,4.0,-999.0,65,-99.99,,,0.00,weatherlink.com 1.10,2013-05-06 21:16:00,
2013-05-06 17:31:00,68.0,56.0,29.88,ENE,72,3.0,-999.0,66,-99.99,,,0.00,weatherlink.com 1.10,2013-05-06 21:31:00,
2013-05-06 17:46:00,67.7,55.0,29.88,ENE,57,6.0,-999.0,65,-99.99,,,0.00,weatherlink.com 1.10,2013-05-06 21:46:00,
2013-05-06 18:01:00,68.0,57.0,29.88,ENE,63,4.0,-999.0,67,-99.99,,,0.00,weatherlink.com 1.10,2013-05-06 22:01:00,
2013-05-06 18:16:00,68.3,56.0,29.88,NE,36,7.0,-999.0,66,-99.99,,,0.00,weatherlink.com 1.10,2013-05-06 22:16:00,
2013-05-06 18:31:00,67.9,56.0,29.88,NE,52,4.0,-999.0,66,-99.99,,,0.00,weatherlink.com 1.10,2013-05-06 22:31:00,
2013-05-06 18:46:00,69.1,56.0,29.88,ENE,70,4.0,-999.0,64,-99.99,,,0.00,weatherlink.com 1.10,2013-05-06 22:46:00,
2013-05-06 19:01:00,68.5,56.0,29.88,NNE,23,8.0,-999.0,65,-99.99,,,0.00,weatherlink.com 1.10,2013-05-06 23:01:00,
2013-05-06 19:16:00,68.0,55.0,29.89,East,83,3.0,-999.0,64,-99.99,,,0.00,weatherlink.com 1.10,2013-05-06 23:16:00,
2013-05-06 19:31:00,67.2,56.0,29.90,NE,51,2.0,-999.0,67,-99.99,,,0.00,weatherlink.com 1.10,2013-05-06 23:31:00,
2013-05-06 19:46:00,66.8,56.0,29.90,East,80,1.0,-999.0,69,-99.99,,,0.00,weatherlink.com 1.10,2013-05-06 23:46:00,
2013-05-06 20:01:00,66.5,57.0,29.91,ENE,68,3.0,-999.0,71,-99.99,,,0.00,weatherlink.com 1.10,2013-05-07 00:01:00,
2013-05-06 20:16:00,66.1,57.0,29.91,NE,54,0.0,-999.0,72,-99.99,,,0.00,weatherlink.com 1.10,2013-05-07 00:16:00,
2013-05-06 20:31:00,65.7,56.0,29.91,ENE,69,3.0,-999.0,70,-99.99,,,0.00,weatherlink.com 1.10,2013-05-07 00:31:00,
2013-05-06 20:46:00,65.4,56.0,29.91,East,92,4.0,-999.0,71,-99.99,,,0.00,weatherlink.com 1.10,2013-05-07 00:46:00,
2013-05-06 21:01:00,64.5,56.0,29.92,East,89,0.0,-999.0,73,-99.99,,,0.00,weatherlink.com 1.10,2013-05-07 01:01:00,
2013-05-06 21:16:00,63.5,55.0,29.92,East,89,1.0,-999.0,75,-99.99,,,0.00,weatherlink.com 1.10,2013-05-07 01:16:00,
2013-05-06 21:31:00,62.4,55.0,29.93,East,89,0.0,-999.0,77,-99.99,,,0.00,weatherlink.com 1.10,2013-05-07 01:31:00,
2013-05-06 21:46:00,62.8,55.0,29.93,East,89,1.0,-999.0,76,-99.99,,,0.00,weatherlink.com 1.10,2013-05-07 01:46:00,
2013-05-06 22:01:00,62.9,55.0,29.93,East,89,0.0,-999.0,75,-99.99,,,0.00,weatherlink.com 1.10,2013-05-07 02:01:00,
2013-05-06 22:16:00,61.2,55.0,29.94,East,89,0.0,-999.0,79,-99.99,,,0.00,weatherlink.com 1.10,2013-05-07 02:16:00,
2013-05-06 22:31:00,60.0,54.0,29.94,SSE,148,0.0,-999.0,81,-99.99,,,0.00,weatherlink.com 1.10,2013-05-07 02:31:00,
2013-05-06 22:46:00,59.1,54.0,29.95,SSE,148,0.0,-999.0,84,-99.99,,,0.00,weatherlink.com 1.10,2013-05-07 02:46:00,
2013-05-06 23:01:00,59.1,54.0,29.94,SSE,148,0.0,-999.0,84,-99.99,,,0.00,weatherlink.com 1.10,2013-05-07 03:01:00,
2013-05-06 23:16:00,59.5,55.0,29.94,SSE,148,2.0,-999.0,84,-99.99,,,0.00,weatherlink.com 1.10,2013-05-07 03:16:00,
2013-05-06 23:31:00,59.4,55.0,29.94,SSE,148,2.0,-999.0,85,-99.99,,,0.00,weatherlink.com 1.10,2013-05-07 03:31:00,
2013-05-06 23:46:00,59.5,55.0,29.94,SSE,148,0.0,-999.0,85,-99.99,,,0.00,weatherlink.com 1.10,2013-05-07 03:46:00,